Volver al catálogo

STARLINK-4176

ActivoComunicacionesVLEO
NORAD 53289·PAYLOAD·🇺🇸 United States

Lanzado Jul 24, 2022 desde Cape Canaveral Space Force Station

Loading…

Próximos Pases (próximas 24 horas)

TLE

ActualizadoSource: CelesTrak SupGP

Época: Sep 14, 2026, 21:26 UTC

1 53289C 22086AZ  26257.89354167  .00027637  00000+0  81683-3 0  2570
2 53289  53.1600  35.6242 0001260  81.4508 174.7231 15.34365492    19

Sigue STARLINK-4176 en tiempo real con AllMySat

Download on the App Store